Tracking 28125 objects as of 4-Oct-2023
HD Live streaming from Space Station
objects crossing your sky now

THORAD AGENA D DEB

Track THORAD AGENA D DEB now!
10-day predictions


NORAD ID: 19667
Int'l Code: 1970-025QC
Perigee: 1,066.9 km
Apogee: 1,592.1 km
Inclination: 99.7 °
Period: 112.1 minutes
Semi major axis: 7700 km
RCS: 0.0155 m2 (small)
Launch date: April 8, 1970
Source: United States (US)
Launch site: AIR FORCE WESTERN TEST RANGE (AFWTR)

Note: This is SATELLITE DEBRIS
Your satellite tracking list
Your tracking list is empty




NASA's NSSDC Master Catalog

Two Line Element Set (TLE):
1 19667U 70025QC  23275.50422931  .00000625  00000-0  21136-2 0  9996
2 19667  99.7023 292.0705 0341061 163.5342 352.9715 12.84770612654808
Source of the keplerian elements: AFSPC